Location: Unspecified
(41.5000°N, 0.0000°E)
Time: 15:03:13
(UTC+00:00)

deb Explorer IX - Pass Details

Date: 29 June 2019
Orbit: 539 x 1112 km, 38.8° (Epoch: 15 July)

Event Time Altitude Azimuth Distance (km) Brightness Sun altitude
Rises 10:44:34 0° 232° (SW) 3,366 ? 65.4°
Reaches altitude 10° 10:47:03 10° 226° (SW) 2,521 ? 65.7°
Maximum altitude 10:52:48 44° 156° (SSE) 1,319 ? 66.5°
Drops below altitude 10° 10:59:21 10° 87° (E) 2,870 ? 67.3°
Sets 11:02:19 0° 81° (E) 3,878 ? 67.7°
